Time,TemperatureF,DewpointF,PressureIn,WindDirection,WindDirectionDegrees,WindSpeedMPH,WindSpeedGustMPH,Humidity,HourlyPrecipIn,Conditions,Clouds,dailyrainin,SoftwareType,DateUTC
2013-02-02 00:03:00,20.8,20.6,30.16,West,270,4.3,-999.0,99,-99.99,,,0.00,Acu-Link.com,2013-02-02 05:03:00,
2013-02-02 00:18:00,20.8,20.6,30.16,West,270,5.1,-999.0,99,-99.99,,,0.00,Acu-Link.com,2013-02-02 05:18:00,
2013-02-02 00:33:00,21.0,20.8,30.16,SW,225,4.7,-999.0,99,-99.99,,,0.00,Acu-Link.com,2013-02-02 05:33:00,
2013-02-02 00:48:00,20.8,20.6,30.17,WSW,247,4.3,-999.0,99,-99.99,,,0.00,Acu-Link.com,2013-02-02 05:48:00,
2013-02-02 01:04:00,20.7,20.4,30.17,West,270,4.3,-999.0,99,-99.99,,,0.00,Acu-Link.com,2013-02-02 06:04:00,
2013-02-02 01:19:00,20.8,20.6,30.17,West,270,4.3,-999.0,99,-99.99,,,0.00,Acu-Link.com,2013-02-02 06:19:00,
2013-02-02 01:34:00,20.7,20.4,30.18,West,270,5.1,-999.0,99,-99.99,,,0.00,Acu-Link.com,2013-02-02 06:34:00,
2013-02-02 01:49:00,20.5,20.2,30.19,West,270,4.3,-999.0,99,-99.99,,,0.00,Acu-Link.com,2013-02-02 06:49:00,
2013-02-02 02:04:00,20.3,20.1,30.19,WNW,292,7.4,-999.0,99,-99.99,,,0.00,Acu-Link.com,2013-02-02 07:04:00,
2013-02-02 02:20:00,20.3,20.1,30.19,West,270,6.3,-999.0,99,-99.99,,,0.00,Acu-Link.com,2013-02-02 07:20:00,
2013-02-02 02:35:00,20.5,20.2,30.20,West,270,4.3,-999.0,99,-99.99,,,0.00,Acu-Link.com,2013-02-02 07:35:00,
2013-02-02 02:50:00,20.3,20.1,30.19,West,270,5.8,-999.0,99,-99.99,,,0.00,Acu-Link.com,2013-02-02 07:50:00,
2013-02-02 03:05:00,20.1,19.9,30.20,NNW,337,3.8,-999.0,99,-99.99,,,0.00,Acu-Link.com,2013-02-02 08:05:00,
2013-02-02 03:20:00,19.8,19.5,30.21,West,270,6.3,-999.0,99,-99.99,,,0.00,Acu-Link.com,2013-02-02 08:20:00,
2013-02-02 03:36:00,19.9,19.7,30.21,West,270,8.9,-999.0,99,-99.99,,,0.00,Acu-Link.com,2013-02-02 08:36:00,
2013-02-02 03:51:00,19.9,19.7,30.21,West,270,4.3,-999.0,99,-99.99,,,0.00,Acu-Link.com,2013-02-02 08:51:00,
2013-02-02 04:16:00,19.6,19.3,30.21,West,270,3.1,-999.0,99,-99.99,,,0.00,Acu-Link.com,2013-02-02 09:16:00,
2013-02-02 04:32:00,19.2,19.0,30.22,SSW,202,2.2,-999.0,99,-99.99,,,0.00,Acu-Link.com,2013-02-02 09:32:00,
2013-02-02 04:47:00,18.9,18.6,30.22,West,270,4.7,-999.0,99,-99.99,,,0.00,Acu-Link.com,2013-02-02 09:47:00,
2013-02-02 05:02:00,19.0,18.8,30.23,West,270,5.1,-999.0,99,-99.99,,,0.00,Acu-Link.com,2013-02-02 10:02:00,
2013-02-02 05:17:00,19.0,18.8,30.23,West,270,4.7,-999.0,99,-99.99,,,0.00,Acu-Link.com,2013-02-02 10:17:00,
2013-02-02 05:32:00,18.5,18.3,30.25,SW,225,2.2,-999.0,99,-99.99,,,0.00,Acu-Link.com,2013-02-02 10:32:00,
2013-02-02 05:47:00,18.3,18.1,30.25,SW,225,2.7,-999.0,99,-99.99,,,0.00,Acu-Link.com,2013-02-02 10:47:00,
2013-02-02 06:03:00,18.0,17.7,30.25,NNW,337,1.6,-999.0,99,-99.99,,,0.00,Acu-Link.com,2013-02-02 11:03:00,
2013-02-02 06:18:00,17.4,17.2,30.25,NW,315,1.6,-999.0,99,-99.99,,,0.00,Acu-Link.com,2013-02-02 11:18:00,
2013-02-02 06:33:00,16.9,16.6,30.25,NNW,337,0.0,-999.0,99,-99.99,,,0.00,Acu-Link.com,2013-02-02 11:33:00,
2013-02-02 06:48:00,16.2,15.9,30.25,West,270,3.8,-999.0,99,-99.99,,,0.00,Acu-Link.com,2013-02-02 11:48:00,
2013-02-02 07:03:00,16.5,16.3,30.26,West,270,0.0,-999.0,99,-99.99,,,0.00,Acu-Link.com,2013-02-02 12:03:00,
2013-02-02 07:19:00,16.3,16.1,30.27,West,270,1.6,-999.0,99,-99.99,,,0.00,Acu-Link.com,2013-02-02 12:19:00,
2013-02-02 07:34:00,16.7,16.5,30.27,West,270,2.2,-999.0,99,-99.99,,,0.00,Acu-Link.com,2013-02-02 12:34:00,
2013-02-02 07:49:00,19.8,19.5,30.28,West,270,2.7,-999.0,99,-99.99,,,0.00,Acu-Link.com,2013-02-02 12:49:00,
2013-02-02 08:04:00,21.2,21.0,30.28,West,270,3.8,-999.0,99,-99.99,,,0.00,Acu-Link.com,2013-02-02 13:04:00,
2013-02-02 08:20:00,21.2,21.0,30.28,ESE,112,2.7,-999.0,99,-99.99,,,0.00,Acu-Link.com,2013-02-02 13:20:00,
2013-02-02 08:35:00,22.3,22.0,30.29,WNW,292,4.7,-999.0,99,-99.99,,,0.00,Acu-Link.com,2013-02-02 13:35:00,
2013-02-02 08:50:00,22.8,22.6,30.29,West,270,4.3,-999.0,99,-99.99,,,0.00,Acu-Link.com,2013-02-02 13:50:00,
2013-02-02 09:05:00,23.4,23.1,30.29,WSW,247,3.8,-999.0,99,-99.99,,,0.00,Acu-Link.com,2013-02-02 14:05:00,
2013-02-02 09:20:00,25.2,24.9,30.29,East,90,6.3,-999.0,99,-99.99,,,0.00,Acu-Link.com,2013-02-02 14:20:00,
2013-02-02 09:36:00,25.3,25.1,30.28,East,90,0.0,-999.0,99,-99.99,,,0.00,Acu-Link.com,2013-02-02 14:36:00,
2013-02-02 09:51:00,26.4,26.2,30.28,WSW,247,1.6,-999.0,99,-99.99,,,0.00,Acu-Link.com,2013-02-02 14:51:00,
2013-02-02 10:06:00,26.8,26.5,30.27,SSW,202,3.1,-999.0,99,-99.99,,,0.00,Acu-Link.com,2013-02-02 15:06:00,
2013-02-02 10:21:00,27.9,27.6,30.28,WSW,247,2.2,-999.0,99,-99.99,,,0.00,Acu-Link.com,2013-02-02 15:21:00,
2013-02-02 10:36:00,27.7,27.4,30.27,SSE,157,5.8,-999.0,99,-99.99,,,0.00,Acu-Link.com,2013-02-02 15:36:00,
2013-02-02 10:52:00,28.6,28.3,30.26,South,180,7.8,-999.0,99,-99.99,,,0.00,Acu-Link.com,2013-02-02 15:52:00,
2013-02-02 11:07:00,27.5,27.3,30.26,West,270,6.3,-999.0,99,-99.99,,,0.00,Acu-Link.com,2013-02-02 16:07:00,
2013-02-02 11:22:00,27.9,27.6,30.25,SSE,157,5.8,-999.0,99,-99.99,,,0.00,Acu-Link.com,2013-02-02 16:22:00,
2013-02-02 11:37:00,28.8,28.5,30.24,ESE,112,4.7,-999.0,99,-99.99,,,0.00,Acu-Link.com,2013-02-02 16:37:00,
2013-02-02 11:52:00,28.6,28.3,30.23,East,90,4.7,-999.0,99,-99.99,,,0.00,Acu-Link.com,2013-02-02 16:52:00,
2013-02-02 12:08:00,29.1,28.9,30.23,NNW,337,8.3,-999.0,99,-99.99,,,0.00,Acu-Link.com,2013-02-02 17:08:00,
2013-02-02 12:23:00,29.1,28.9,30.22,North,0,2.7,-999.0,99,-99.99,,,0.00,Acu-Link.com,2013-02-02 17:23:00,
2013-02-02 12:38:00,29.8,29.6,30.21,West,270,4.3,-999.0,99,-99.99,,,0.00,Acu-Link.com,2013-02-02 17:38:00,
2013-02-02 12:53:00,30.0,29.8,30.19,West,270,6.7,-999.0,99,-99.99,,,0.00,Acu-Link.com,2013-02-02 17:53:00,
2013-02-02 13:08:00,28.9,28.7,30.18,WSW,247,6.7,-999.0,99,-99.99,,,0.00,Acu-Link.com,2013-02-02 18:08:00,
2013-02-02 13:09:00,28.9,28.7,30.18,SSE,157,6.7,-999.0,99,-99.99,,,0.00,Acu-Link.com,2013-02-02 18:09:00,
2013-02-02 13:24:00,29.1,28.9,30.18,South,180,5.8,-999.0,99,-99.99,,,0.00,Acu-Link.com,2013-02-02 18:24:00,
2013-02-02 13:39:00,29.5,29.2,30.17,South,180,2.2,-999.0,99,-99.99,,,0.00,Acu-Link.com,2013-02-02 18:39:00,
2013-02-02 13:54:00,27.9,27.6,30.16,NW,315,3.8,-999.0,99,-99.99,,,0.00,Acu-Link.com,2013-02-02 18:54:00,
2013-02-02 14:09:00,30.7,30.5,30.16,West,270,4.3,-999.0,99,-99.99,,,0.00,Acu-Link.com,2013-02-02 19:09:00,
2013-02-02 14:25:00,30.9,30.7,30.15,SSE,157,5.1,-999.0,99,-99.99,,,0.00,Acu-Link.com,2013-02-02 19:25:00,
2013-02-02 14:40:00,29.5,29.2,30.15,SE,135,5.8,-999.0,99,-99.99,,,0.00,Acu-Link.com,2013-02-02 19:40:00,
2013-02-02 14:55:00,30.6,30.3,30.14,WSW,247,2.7,-999.0,99,-99.99,,,0.00,Acu-Link.com,2013-02-02 19:55:00,
2013-02-02 15:10:00,29.8,29.6,30.13,South,180,7.4,-999.0,99,-99.99,,,0.00,Acu-Link.com,2013-02-02 20:10:00,
2013-02-02 15:25:00,29.7,29.4,30.13,SSW,202,6.3,-999.0,99,-99.99,,,0.00,Acu-Link.com,2013-02-02 20:25:00,
2013-02-02 15:40:00,29.7,29.4,30.12,WSW,247,3.8,-999.0,99,-99.99,,,0.00,Acu-Link.com,2013-02-02 20:40:00,
2013-02-02 15:56:00,29.1,28.9,30.12,ESE,112,4.3,-999.0,99,-99.99,,,0.00,Acu-Link.com,2013-02-02 20:56:00,
2013-02-02 16:11:00,29.1,28.9,30.12,West,270,5.1,-999.0,99,-99.99,,,0.00,Acu-Link.com,2013-02-02 21:11:00,
2013-02-02 16:26:00,28.6,28.3,30.12,SW,225,8.3,-999.0,99,-99.99,,,0.00,Acu-Link.com,2013-02-02 21:26:00,
2013-02-02 16:41:00,28.2,28.0,30.11,South,180,6.7,-999.0,99,-99.99,,,0.00,Acu-Link.com,2013-02-02 21:41:00,
2013-02-02 16:56:00,27.7,27.4,30.11,WNW,292,6.3,-999.0,99,-99.99,,,0.00,Acu-Link.com,2013-02-02 21:56:00,
2013-02-02 17:12:00,27.9,27.6,30.10,SSE,157,4.7,-999.0,99,-99.99,,,0.00,Acu-Link.com,2013-02-02 22:12:00,
2013-02-02 17:27:00,28.0,27.8,30.10,WSW,247,4.7,-999.0,99,-99.99,,,0.00,Acu-Link.com,2013-02-02 22:27:00,
2013-02-02 17:42:00,28.0,27.8,30.10,SW,225,3.1,-999.0,99,-99.99,,,0.00,Acu-Link.com,2013-02-02 22:42:00,
2013-02-02 17:57:00,28.0,27.8,30.10,East,90,4.3,-999.0,99,-99.99,,,0.00,Acu-Link.com,2013-02-02 22:57:00,
2013-02-02 18:13:00,28.0,27.8,30.10,WNW,292,5.8,-999.0,99,-99.99,,,0.00,Acu-Link.com,2013-02-02 23:13:00,
2013-02-02 18:28:00,28.2,28.0,30.09,West,270,5.8,-999.0,99,-99.99,,,0.00,Acu-Link.com,2013-02-02 23:28:00,
2013-02-02 18:43:00,28.4,28.2,30.09,South,180,3.8,-999.0,99,-99.99,,,0.00,Acu-Link.com,2013-02-02 23:43:00,
2013-02-02 18:58:00,28.4,28.2,30.09,NW,315,5.1,-999.0,99,-99.99,,,0.00,Acu-Link.com,2013-02-02 23:58:00,
2013-02-02 19:13:00,28.6,28.3,30.09,West,270,5.1,-999.0,99,-99.99,,,0.00,Acu-Link.com,2013-02-03 00:13:00,
2013-02-02 19:29:00,28.8,28.5,30.08,SSW,202,2.7,-999.0,99,-99.99,,,0.00,Acu-Link.com,2013-02-03 00:29:00,
2013-02-02 19:44:00,28.9,28.7,30.08,WSW,247,3.8,-999.0,99,-99.99,,,0.00,Acu-Link.com,2013-02-03 00:44:00,
2013-02-02 19:59:00,28.9,28.7,30.08,NW,315,4.3,-999.0,99,-99.99,,,0.00,Acu-Link.com,2013-02-03 00:59:00,
2013-02-02 20:14:00,28.9,28.7,30.08,SW,225,3.8,-999.0,99,-99.99,,,0.00,Acu-Link.com,2013-02-03 01:14:00,
2013-02-02 20:29:00,29.1,28.9,30.07,West,270,3.1,-999.0,99,-99.99,,,0.00,Acu-Link.com,2013-02-03 01:29:00,
2013-02-02 20:45:00,29.1,28.9,30.07,West,270,7.4,-999.0,99,-99.99,,,0.00,Acu-Link.com,2013-02-03 01:45:00,
2013-02-02 21:00:00,29.3,29.1,30.07,NW,315,4.7,-999.0,99,-99.99,,,0.00,Acu-Link.com,2013-02-03 02:00:00,
2013-02-02 21:15:00,28.9,28.7,30.07,West,270,4.3,-999.0,99,-99.99,,,0.00,Acu-Link.com,2013-02-03 02:15:00,
2013-02-02 21:30:00,28.8,28.5,30.08,West,270,7.4,-999.0,99,-99.99,,,0.00,Acu-Link.com,2013-02-03 02:30:00,
2013-02-02 21:46:00,27.7,27.4,30.08,WNW,292,10.3,-999.0,99,-99.99,,,0.00,Acu-Link.com,2013-02-03 02:46:00,
2013-02-02 22:01:00,27.5,27.3,30.08,WSW,247,7.8,-999.0,99,-99.99,,,0.00,Acu-Link.com,2013-02-03 03:01:00,
2013-02-02 22:16:00,26.8,26.3,30.08,SW,225,8.3,-999.0,98,-99.99,,,0.00,Acu-Link.com,2013-02-03 03:16:00,
2013-02-02 22:31:00,26.4,26.2,30.08,WSW,247,9.8,-999.0,99,-99.99,,,0.00,Acu-Link.com,2013-02-03 03:31:00,
2013-02-02 22:47:00,25.9,25.6,30.08,West,270,6.7,-999.0,99,-99.99,,,0.00,Acu-Link.com,2013-02-03 03:47:00,
2013-02-02 23:02:00,25.5,11.2,30.08,West,270,3.1,-999.0,54,-99.99,,,0.00,Acu-Link.com,2013-02-03 04:02:00,
2013-02-02 23:17:00,25.0,24.5,30.08,West,270,4.3,-999.0,98,-99.99,,,0.00,Acu-Link.com,2013-02-03 04:17:00,
2013-02-02 23:32:00,24.8,24.3,30.08,West,270,3.1,-999.0,98,-99.99,,,0.00,Acu-Link.com,2013-02-03 04:32:00,
2013-02-02 23:47:00,24.6,21.3,30.08,WNW,292,3.1,-999.0,87,-99.99,,,0.00,Acu-Link.com,2013-02-03 04:47:00,